Location: Goll?ig?dem
(16.6773°N, 80.7332°E)
Time: 01:53:52
(UTC+00:00)

Meteor 2-13 Rocket - Pass Details

Date: 21 April 2021
Orbit: 936 x 958 km, 82.5° (Epoch: 08 May)

Event Time Altitude Azimuth Distance (km) Brightness Sun altitude
Rises 13:44:10 0° 356° (N) 3,607 7.8 -12.5°
Reaches altitude 10° 13:46:39 10° 356° (N) 2,664 7.1 -13.0°
Maximum altitude 13:52:46 87° 87° (E) 955 4.4 -14.4°
Drops below altitude 10° 13:58:54 10° 175° (S) 2,674 6.6 -15.8°
Sets 14:01:23 0° 176° (S) 3,621 7.3 -16.4°
